Regional Weather Roundup
Issued by NWS State College, PA

Home | Current Version | Previous Version | Graphics & Text | Print | Product List | Glossary Off
Versions: 1 2 3 4 5 6 7 8 9 10 11 12 13 14 15 16 17 18 19 20 21 22 23 24 25 26 27 28 29 30 31 32 33 34 35 36 37 38 39 40 41 42 43 44 45 46 47 48 49 50

000
ASUS41 KCTP 280510
RWRCTP

REGIONAL WEATHER ROUNDUP
NATIONAL WEATHER SERVICE STATE COLLEGE PA
100 AM EDT TUE APR 28 2015

Note: "fair" indicates few or no clouds below 12,000 feet with no
significant weather and/or obstructions to visibility.

* = STATION THAT DOES NOT REPORT PRECIPITATION /E.G. RAIN...SNOW...ETC/
    THUNDER OR FOG.

PAZ002>004-007>009-013>016-020>023-029>032-280600-
WESTERN PENNSYLVANIA

CITY           SKY/WX    TMP DP  RH WIND       PRES   REMARKS
ERIE           CLOUDY    43  36  76 NW6       30.03R
MEADVILLE      CLOUDY    41  36  82 NW6       30.01R
FRANKLIN*      CLOUDY    39  34  81 NW5       30.01S
NEW CASTLE     CLOUDY    41  37  85 CALM      30.04S
BEAVER COUNTY  NOT AVBL
BUTLER*        CLOUDY    41  36  81 N3        30.02F
PITTSBURGH INT MOCLDY    41  35  79 NW8       30.02S
PITTSBURGH     MOCLDY    40  33  76 NW8       30.00S
INDIANA*       CLOUDY    41  37  87 NW6       30.02S
LATROBE        CLOUDY    41  37  87 CALM      30.03R
WASHINGTON CO* MOCLDY    39  34  81 CALM      30.05R
$$

PAZ004>006-010>012-017>019-024>028-033>037-041-042-045-046-049>053-280600-
CENTRAL PENNSYLVANIA

CITY           SKY/WX    TMP DP  RH WIND       PRES   REMARKS
BRADFORD       CLOUDY    38  35  89 NW9       29.95R
DUBOIS         CLOUDY    41  35  79 NW9       29.95S
CLEARFIELD     CLOUDY    42  35  76 NW7       29.95R
JOHNSTOWN      CLOUDY    37  34  89 NW13      29.94S
ALTOONA        CLOUDY    42  34  73 NW9       29.94R
STATE COLLEGE  CLOUDY    44  35  72 CALM      29.92R
WILLIAMSPORT   CLOUDY    48  37  65 W7        29.88R
SELINSGROVE    CLOUDY    49  37  63 NW7       29.89R
FT INDIANTOWN  CLOUDY    49  36  61 N16G22    29.84S
CAPITAL CITY   CLOUDY    50  34  54 NW9       29.88R
HARRISBURG     MOCLDY    50  34  54 NW16      29.86S
YORK           CLOUDY    47  36  65 W7        29.87S
$$

PAZ038>040-043-044-047-048-054-055-060>062-067>071-280600-
EASTERN PENNSYLVANIA

CITY           SKY/WX    TMP DP  RH WIND       PRES   REMARKS
SCRANTON       LGT RAIN  46  39  76 N6        29.83S
MOUNT POCONO   LGT RAIN  41  37  86 NW14G26   29.77S
ALLENTOWN      CLOUDY    49  37  63 NW7       29.80S
QUAKERTOWN*    MOCLDY    48  37  66 NW8       29.81R
READING        CLOUDY    49  37  63 NW9       29.83R
LANCASTER      CLOUDY    49  34  56 NW13      29.84S
COATESVILLE    MOCLDY    48  36  61 NW12      29.83R
POTTSTOWN      CLOUDY    49  36  61 NW8       29.82S
BLUE BELL      MOCLDY    52  36  54 NW7       29.79S
DOYLESTOWN     CLOUDY    48  35  60 NW12      29.78R
WILLOW GROVE   NOT AVBL
NORTH PHILA    CLOUDY    53  33  46 NW10      29.79F
PHILADELPHIA   CLOUDY    53  34  48 NW14      29.80S
$$


USA.gov is the U.S. government's official web portal to all federal, state and local government web resources and services.